Location: All Nations United Methodist Church
(33.0215°N, 96.7483°W)
Time: 15:22:34
(UTC+00:00)

FALCON 9 DEB - Pass Details

Date: 24 January 2021
Orbit: 377 x 388 km, 53.0° (Epoch: 06 March)

Event Time Altitude Azimuth Distance (km) Brightness Sun altitude
Exits shadow 12:16:10 15° 224° (SW) 1,126 4.9 -14.9°
Maximum altitude 12:18:37 88° 305° (NW) 388 2.8 -14.4°
Drops below altitude 10° 12:21:45 10° 44° (NE) 1,402 6.1 -13.8°
Sets 12:23:48 0° 44° (NE) 2,255 7.2 -13.4°
